RYR85HE EGPH-EBCI

Flight info

Callsign RYR85HE
Flight time 1h 21m
Altitude 37000
Route GOSAM P600 FENIK L612 NAVSO DCT AKOMU DCT VAMEB UL612 HON L15 BIG Q70 KOK
Aircraft B38M/M-SDE1FGHILORVWXY/HB1

Departure

Time 2026-04-23 12:34
Airport Edinburgh Airport (EGPH)

Arrival

Time 2026-04-23 13:56
Airport Brussels South Charleroi Airport (EBCI)
Time Latitude Longitude Altitude Speed Heading
2026-04-23 12:15 55.94941 -3.36355 144 ft 0 kts 149°
2026-04-23 12:24 55.94944 -3.36358 144 ft 1 kts 149°
2026-04-23 12:24 55.94956 -3.36372 144 ft 3 kts 136°
2026-04-23 12:24 55.94968 -3.36396 144 ft 3 kts 129°
2026-04-23 12:24 55.94979 -3.36425 144 ft 3 kts 115°
2026-04-23 12:25 55.94984 -3.36460 144 ft 3 kts 91°
2026-04-23 12:25 55.94981 -3.36498 144 ft 0 kts 76°
2026-04-23 12:25 55.94977 -3.36501 144 ft 1 kts 59°
2026-04-23 12:25 55.94973 -3.36514 144 ft 0 kts 59°
2026-04-23 12:27 55.94974 -3.36512 144 ft 0 kts 59°
2026-04-23 12:28 55.94983 -3.36485 144 ft 5 kts 59°
2026-04-23 12:28 55.95007 -3.36412 144 ft 8 kts 54°
2026-04-23 12:28 55.95063 -3.36401 144 ft 10 kts 313°
2026-04-23 12:28 55.95054 -3.36523 144 ft 13 kts 238°
2026-04-23 12:29 55.95001 -3.36678 144 ft 17 kts 239°
2026-04-23 12:29 55.94934 -3.36879 144 ft 21 kts 239°
2026-04-23 12:29 55.94855 -3.37116 144 ft 21 kts 239°
2026-04-23 12:29 55.94783 -3.37329 144 ft 19 kts 239°
2026-04-23 12:30 55.94720 -3.37515 144 ft 17 kts 239°
2026-04-23 12:30 55.94658 -3.37701 144 ft 18 kts 239°
2026-04-23 12:30 55.94593 -3.37892 144 ft 18 kts 239°
2026-04-23 12:30 55.94528 -3.38085 144 ft 18 kts 239°
2026-04-23 12:31 55.94463 -3.38279 144 ft 19 kts 239°
2026-04-23 12:31 55.94395 -3.38482 144 ft 19 kts 239°
2026-04-23 12:31 55.94332 -3.38669 144 ft 15 kts 239°
2026-04-23 12:31 55.94289 -3.38812 144 ft 8 kts 267°
2026-04-23 12:32 55.94318 -3.38892 144 ft 8 kts 325°
2026-04-23 12:32 55.94366 -3.38945 144 ft 8 kts 328°
2026-04-23 12:32 55.94417 -3.38966 144 ft 7 kts 26°
2026-04-23 12:32 55.94436 -3.38929 144 ft 4 kts 59°
2026-04-23 12:33 55.94440 -3.38917 144 ft 0 kts 59°
2026-04-23 12:33 55.94448 -3.38894 144 ft 10 kts 59°
2026-04-23 12:33 55.94707 -3.38124 144 ft 100 kts 59°
2026-04-23 12:34 55.94993 -3.37275 146 ft 139 kts 59°
2026-04-23 12:34 55.95526 -3.35692 670 ft 154 kts 59°
2026-04-23 12:34 55.96086 -3.33986 1389 ft 163 kts 58°
2026-04-23 12:34 55.96851 -3.32472 2119 ft 169 kts 43°
2026-04-23 12:35 55.97777 -3.31091 2865 ft 176 kts 40°
2026-04-23 12:35 55.98764 -3.29702 3565 ft 183 kts 39°
2026-04-23 12:35 55.99908 -3.28645 4209 ft 194 kts 15°
2026-04-23 12:35 56.01279 -3.28848 4856 ft 204 kts 341°
2026-04-23 12:36 56.02414 -3.30358 5495 ft 209 kts 307°
2026-04-23 12:36 56.02961 -3.32774 6132 ft 214 kts 275°
2026-04-23 12:36 56.02893 -3.35502 6785 ft 227 kts 259°
2026-04-23 12:36 56.02588 -3.38375 7537 ft 247 kts 255°
2026-04-23 12:37 56.02181 -3.41499 8366 ft 266 kts 255°
2026-04-23 12:37 56.01727 -3.44805 9182 ft 284 kts 254°
2026-04-23 12:37 56.01233 -3.48349 10001 ft 301 kts 254°
2026-04-23 12:37 56.00706 -3.52069 10815 ft 316 kts 254°
2026-04-23 12:38 55.99961 -3.57249 11890 ft 332 kts 254°
2026-04-23 12:38 55.99570 -3.59935 12428 ft 340 kts 254°
2026-04-23 12:38 55.98825 -3.63999 13232 ft 348 kts 243°
2026-04-23 12:38 55.97395 -3.67530 14047 ft 353 kts 224°
2026-04-23 12:39 55.95380 -3.70015 14856 ft 358 kts 206°
2026-04-23 12:39 55.92990 -3.71472 15686 ft 363 kts 194°
2026-04-23 12:39 55.90530 -3.72334 16490 ft 366 kts 189°
2026-04-23 12:39 55.87979 -3.72936 17304 ft 369 kts 187°
2026-04-23 12:40 55.85438 -3.73398 18118 ft 370 kts 186°
2026-04-23 12:40 55.82841 -3.73803 18929 ft 375 kts 185°
2026-04-23 12:40 55.80242 -3.74173 19727 ft 380 kts 185°
2026-04-23 12:40 55.77579 -3.74535 20533 ft 385 kts 185°
2026-04-23 12:41 55.74890 -3.74892 21339 ft 387 kts 185°
2026-04-23 12:41 55.72190 -3.75243 22141 ft 391 kts 185°
2026-04-23 12:41 55.69491 -3.75589 22911 ft 396 kts 185°
2026-04-23 12:41 55.66712 -3.75944 23614 ft 402 kts 185°
2026-04-23 12:42 55.63890 -3.76300 24300 ft 408 kts 185°
2026-04-23 12:42 55.61055 -3.76655 25016 ft 416 kts 185°
2026-04-23 12:42 55.58134 -3.77019 25809 ft 420 kts 185°
2026-04-23 12:42 55.55198 -3.77384 26610 ft 423 kts 185°
2026-04-23 12:43 55.52269 -3.77747 27406 ft 425 kts 185°
2026-04-23 12:43 55.49328 -3.78110 28204 ft 425 kts 185°
2026-04-23 12:43 55.46357 -3.78475 29009 ft 424 kts 185°
2026-04-23 12:43 55.43449 -3.78832 29799 ft 423 kts 185°
2026-04-23 12:44 55.40500 -3.79192 30604 ft 420 kts 185°
2026-04-23 12:44 55.37608 -3.79545 31397 ft 417 kts 185°
2026-04-23 12:44 55.34718 -3.79893 32197 ft 412 kts 185°
2026-04-23 12:44 55.31890 -3.80231 32987 ft 408 kts 185°
2026-04-23 12:45 55.29096 -3.80561 33777 ft 402 kts 185°
2026-04-23 12:45 55.26303 -3.80620 34578 ft 396 kts 175°
2026-04-23 12:45 55.23639 -3.79647 35382 ft 389 kts 164°
2026-04-23 12:45 55.21105 -3.78114 36192 ft 380 kts 159°
2026-04-23 12:46 55.18706 -3.76376 36992 ft 371 kts 157°
2026-04-23 12:46 55.16371 -3.74550 37551 ft 369 kts 156°
2026-04-23 12:46 55.13989 -3.72628 37578 ft 382 kts 155°
2026-04-23 12:46 55.11527 -3.70613 37557 ft 395 kts 155°
2026-04-23 12:47 55.09024 -3.68555 37546 ft 408 kts 155°
2026-04-23 12:47 55.06407 -3.66400 37541 ft 419 kts 155°
2026-04-23 12:47 55.03751 -3.64214 37539 ft 430 kts 155°
2026-04-23 12:47 55.01006 -3.61957 37541 ft 439 kts 155°
2026-04-23 12:48 54.95360 -3.57329 37540 ft 457 kts 155°
2026-04-23 12:48 54.89573 -3.52602 37526 ft 462 kts 155°
2026-04-23 12:49 54.83765 -3.47869 37523 ft 461 kts 155°
2026-04-23 12:49 54.77951 -3.43142 37523 ft 461 kts 155°
2026-04-23 12:50 54.72129 -3.38422 37523 ft 461 kts 155°
2026-04-23 12:50 54.66341 -3.33747 37525 ft 461 kts 155°
2026-04-23 12:51 54.60518 -3.29060 37529 ft 461 kts 155°
2026-04-23 12:51 54.54761 -3.24362 37528 ft 461 kts 155°
2026-04-23 12:52 54.48970 -3.19561 37528 ft 461 kts 154°
2026-04-23 12:52 54.43205 -3.14754 37527 ft 461 kts 154°
2026-04-23 12:53 54.37463 -3.09862 37527 ft 460 kts 154°
2026-04-23 12:53 54.31725 -3.05042 37526 ft 460 kts 154°
2026-04-23 12:54 54.25946 -3.00273 37525 ft 460 kts 154°
2026-04-23 12:54 54.20191 -2.95607 37525 ft 460 kts 155°
2026-04-23 12:55 54.14343 -2.91124 37516 ft 460 kts 156°
2026-04-23 12:55 54.08449 -2.86734 37507 ft 460 kts 156°
2026-04-23 12:56 54.02597 -2.82423 37501 ft 460 kts 156°
2026-04-23 12:56 53.96689 -2.78106 37499 ft 461 kts 156°
2026-04-23 12:57 53.90810 -2.73847 37498 ft 461 kts 156°
2026-04-23 12:57 53.84920 -2.69599 37498 ft 462 kts 157°
2026-04-23 12:58 53.78983 -2.65359 37499 ft 462 kts 157°
2026-04-23 12:58 53.73041 -2.61115 37503 ft 462 kts 157°
2026-04-23 12:59 53.67105 -2.56887 37505 ft 462 kts 157°
2026-04-23 12:59 53.61215 -2.52703 37510 ft 462 kts 157°
2026-04-23 13:00 53.55270 -2.48493 37515 ft 462 kts 157°
2026-04-23 13:00 53.49354 -2.44314 37519 ft 462 kts 157°
2026-04-23 13:01 53.43410 -2.40128 37521 ft 462 kts 157°
2026-04-23 13:01 53.37494 -2.35974 37522 ft 463 kts 157°
2026-04-23 13:02 53.31532 -2.31800 37523 ft 463 kts 157°
2026-04-23 13:02 53.25611 -2.27666 37522 ft 463 kts 157°
2026-04-23 13:03 53.19673 -2.23532 37517 ft 463 kts 157°
2026-04-23 13:03 53.13694 -2.19384 37509 ft 464 kts 157°
2026-04-23 13:04 53.07745 -2.15263 37502 ft 464 kts 157°
2026-04-23 13:04 53.01793 -2.11151 37498 ft 465 kts 157°
2026-04-23 13:05 52.95796 -2.07019 37496 ft 465 kts 157°
2026-04-23 13:05 52.89830 -2.02920 37496 ft 466 kts 157°
2026-04-23 13:06 52.80836 -1.96771 37500 ft 467 kts 157°
2026-04-23 13:07 52.74823 -1.92692 37518 ft 468 kts 157°
2026-04-23 13:07 52.68803 -1.88626 37520 ft 469 kts 157°
2026-04-23 13:08 52.62752 -1.84550 37520 ft 469 kts 157°
2026-04-23 13:08 52.56681 -1.80473 37520 ft 470 kts 157°
2026-04-23 13:09 52.50650 -1.76432 37522 ft 470 kts 157°
2026-04-23 13:09 52.44597 -1.72388 37523 ft 471 kts 157°
2026-04-23 13:10 52.38665 -1.67809 37524 ft 470 kts 146°
2026-04-23 13:10 52.33520 -1.61298 37524 ft 469 kts 137°
2026-04-23 13:11 52.28791 -1.53982 37519 ft 469 kts 134°
2026-04-23 13:11 52.24220 -1.46404 37509 ft 469 kts 133°
2026-04-23 13:12 52.19691 -1.38757 37503 ft 469 kts 133°
2026-04-23 13:12 52.15159 -1.31078 37498 ft 469 kts 133°
2026-04-23 13:13 52.10640 -1.23474 37498 ft 469 kts 133°
2026-04-23 13:13 52.06041 -1.15881 37495 ft 469 kts 133°
2026-04-23 13:14 52.01482 -1.08349 37491 ft 468 kts 133°
2026-04-23 13:14 51.96968 -1.00789 37494 ft 469 kts 133°
2026-04-23 13:15 51.92420 -0.93153 37488 ft 470 kts 133°
2026-04-23 13:15 51.87856 -0.85541 37486 ft 471 kts 133°
2026-04-23 13:16 51.83251 -0.77995 37480 ft 471 kts 133°
2026-04-23 13:16 51.78661 -0.70389 37478 ft 472 kts 133°
2026-04-23 13:17 51.74080 -0.62783 37477 ft 472 kts 133°
2026-04-23 13:17 51.69477 -0.55279 37478 ft 473 kts 134°
2026-04-23 13:18 51.64814 -0.47758 37473 ft 473 kts 134°
2026-04-23 13:18 51.60175 -0.40303 37470 ft 473 kts 134°
2026-04-23 13:19 51.55504 -0.32816 37466 ft 473 kts 134°
2026-04-23 13:19 51.50861 -0.25389 37476 ft 473 kts 134°
2026-04-23 13:20 51.47043 -0.16920 37497 ft 468 kts 111°
2026-04-23 13:20 51.45171 -0.07035 37507 ft 466 kts 100°
2026-04-23 13:21 51.44139 0.01462 37499 ft 466 kts 98°
2026-04-23 13:21 51.43107 0.11703 37495 ft 463 kts 98°
2026-04-23 13:22 51.42154 0.21882 37495 ft 458 kts 98°
2026-04-23 13:22 51.41276 0.31253 37497 ft 455 kts 98°
2026-04-23 13:23 51.40353 0.41238 37006 ft 458 kts 98°
2026-04-23 13:23 51.39886 0.46295 36516 ft 457 kts 98°
2026-04-23 13:23 51.39402 0.51330 36017 ft 456 kts 99°
2026-04-23 13:23 51.38910 0.56335 35517 ft 454 kts 99°
2026-04-23 13:24 51.38417 0.61307 35018 ft 452 kts 99°
2026-04-23 13:24 51.37924 0.66277 34517 ft 450 kts 99°
2026-04-23 13:24 51.37443 0.71161 34023 ft 449 kts 99°
2026-04-23 13:24 51.36968 0.76103 33522 ft 448 kts 99°
2026-04-23 13:25 51.36521 0.81020 33023 ft 447 kts 99°
2026-04-23 13:25 51.36083 0.85965 32522 ft 447 kts 99°
2026-04-23 13:25 51.35633 0.90895 32021 ft 447 kts 99°
2026-04-23 13:25 51.35173 0.95842 31518 ft 447 kts 99°
2026-04-23 13:26 51.34709 1.00781 31016 ft 448 kts 99°
2026-04-23 13:26 51.34252 1.05652 30522 ft 448 kts 99°
2026-04-23 13:26 51.33790 1.10609 30019 ft 449 kts 99°
2026-04-23 13:26 51.33337 1.15517 29522 ft 449 kts 99°
2026-04-23 13:27 51.32872 1.20490 29019 ft 450 kts 100°
2026-04-23 13:27 51.32394 1.25454 28517 ft 450 kts 100°
2026-04-23 13:27 51.31904 1.30427 28014 ft 451 kts 101°
2026-04-23 13:27 51.31417 1.35340 27518 ft 452 kts 101°
2026-04-23 13:28 51.30922 1.40324 27016 ft 453 kts 101°
2026-04-23 13:28 51.30426 1.45315 26515 ft 455 kts 101°
2026-04-23 13:28 51.29927 1.50340 26011 ft 456 kts 101°
2026-04-23 13:28 51.29435 1.55292 25517 ft 458 kts 101°
2026-04-23 13:29 51.28934 1.60331 25014 ft 456 kts 101°
2026-04-23 13:29 51.28438 1.65240 24515 ft 440 kts 101°
2026-04-23 13:29 51.27940 1.69985 24013 ft 425 kts 101°
2026-04-23 13:29 51.27451 1.74559 23620 ft 412 kts 101°
2026-04-23 13:30 51.26965 1.79027 23497 ft 403 kts 102°
2026-04-23 13:30 51.26491 1.83359 23463 ft 398 kts 102°
2026-04-23 13:30 51.26013 1.87716 23465 ft 396 kts 102°
2026-04-23 13:30 51.25554 1.92061 23468 ft 396 kts 101°
2026-04-23 13:31 51.25194 1.96425 23471 ft 396 kts 99°
2026-04-23 13:31 51.24901 2.00804 23476 ft 396 kts 98°
2026-04-23 13:31 51.24638 2.05178 23477 ft 396 kts 98°
2026-04-23 13:31 51.24384 2.09495 23476 ft 396 kts 98°
2026-04-23 13:32 51.24129 2.13890 23477 ft 396 kts 98°
2026-04-23 13:32 51.23875 2.18281 23478 ft 396 kts 98°
2026-04-23 13:32 51.23625 2.22603 23479 ft 395 kts 98°
2026-04-23 13:32 51.23371 2.26975 23480 ft 395 kts 98°
2026-04-23 13:33 51.23125 2.31354 23481 ft 395 kts 98°
2026-04-23 13:33 51.22534 2.35563 23487 ft 391 kts 111°
2026-04-23 13:33 51.21429 2.39527 23496 ft 389 kts 119°
2026-04-23 13:33 51.20070 2.43229 23495 ft 388 kts 124°
2026-04-23 13:34 51.18550 2.46814 23492 ft 388 kts 127°
2026-04-23 13:34 51.16946 2.50301 23489 ft 387 kts 128°
2026-04-23 13:34 51.15317 2.53668 23486 ft 387 kts 129°
2026-04-23 13:34 51.13646 2.57032 23485 ft 386 kts 129°
2026-04-23 13:35 51.12031 2.60396 23486 ft 386 kts 128°
2026-04-23 13:35 51.10461 2.63888 23487 ft 387 kts 126°
2026-04-23 13:35 51.08930 2.67407 23487 ft 387 kts 126°
2026-04-23 13:35 51.07407 2.70956 23479 ft 387 kts 125°
2026-04-23 13:36 51.05898 2.74495 23219 ft 391 kts 125°
2026-04-23 13:36 51.04367 2.78091 22817 ft 392 kts 125°
2026-04-23 13:36 51.02838 2.81673 22395 ft 390 kts 125°
2026-04-23 13:36 51.01325 2.85205 21972 ft 388 kts 125°
2026-04-23 13:37 50.99816 2.88765 21545 ft 386 kts 124°
2026-04-23 13:37 50.98343 2.92265 21122 ft 383 kts 124°
2026-04-23 13:37 50.96891 2.95717 20692 ft 361 kts 124°
2026-04-23 13:37 50.95535 2.98934 20260 ft 339 kts 124°
2026-04-23 13:38 50.94253 3.01966 19827 ft 321 kts 124°
2026-04-23 13:38 50.93044 3.04808 19401 ft 307 kts 124°
2026-04-23 13:38 50.91855 3.07590 18967 ft 298 kts 124°
2026-04-23 13:38 50.90714 3.10244 18543 ft 292 kts 124°
2026-04-23 13:39 50.89569 3.12892 18114 ft 289 kts 124°
2026-04-23 13:39 50.88438 3.15524 17686 ft 286 kts 123°
2026-04-23 13:39 50.87340 3.18105 17265 ft 285 kts 123°
2026-04-23 13:39 50.86225 3.20725 16834 ft 283 kts 123°
2026-04-23 13:40 50.85138 3.23268 16413 ft 281 kts 123°
2026-04-23 13:40 50.84036 3.25828 15986 ft 280 kts 123°
2026-04-23 13:40 50.82944 3.28346 15563 ft 278 kts 123°
2026-04-23 13:40 50.81858 3.30868 15138 ft 277 kts 123°
2026-04-23 13:41 50.80775 3.33405 14710 ft 275 kts 122°
2026-04-23 13:41 50.79712 3.35884 14288 ft 274 kts 122°
2026-04-23 13:41 50.78633 3.38386 13858 ft 273 kts 122°
2026-04-23 13:41 50.77566 3.40867 13433 ft 271 kts 122°
2026-04-23 13:42 50.76531 3.43323 13010 ft 270 kts 121°
2026-04-23 13:42 50.75499 3.45803 12582 ft 268 kts 121°
2026-04-23 13:42 50.74479 3.48273 12156 ft 267 kts 120°
2026-04-23 13:42 50.73474 3.50697 11734 ft 266 kts 120°
2026-04-23 13:43 50.72454 3.53151 11306 ft 264 kts 120°
2026-04-23 13:43 50.71459 3.55541 10885 ft 263 kts 121°
2026-04-23 13:43 50.70448 3.57955 10457 ft 262 kts 122°
2026-04-23 13:43 50.69389 3.60289 10120 ft 258 kts 123°
2026-04-23 13:44 50.68333 3.62517 9871 ft 255 kts 124°
2026-04-23 13:44 50.67257 3.64761 9620 ft 255 kts 124°
2026-04-23 13:44 50.66183 3.66999 9372 ft 255 kts 124°
2026-04-23 13:44 50.65108 3.69239 9119 ft 255 kts 124°
2026-04-23 13:45 50.64052 3.71437 8874 ft 254 kts 124°
2026-04-23 13:45 50.62980 3.73660 8622 ft 254 kts 124°
2026-04-23 13:45 50.61912 3.75871 8370 ft 252 kts 124°
2026-04-23 13:45 50.60847 3.78074 8120 ft 251 kts 124°
2026-04-23 13:46 50.59799 3.80242 7870 ft 250 kts 124°
2026-04-23 13:46 50.58744 3.82422 7620 ft 249 kts 124°
2026-04-23 13:46 50.57695 3.84592 7366 ft 248 kts 124°
2026-04-23 13:46 50.56663 3.86733 7117 ft 246 kts 124°
2026-04-23 13:47 50.55629 3.88884 6872 ft 246 kts 124°
2026-04-23 13:47 50.54595 3.91032 6615 ft 244 kts 124°
2026-04-23 13:47 50.53578 3.93145 6369 ft 243 kts 124°
2026-04-23 13:47 50.52556 3.95269 6117 ft 242 kts 124°
2026-04-23 13:48 50.51541 3.97376 5885 ft 240 kts 124°
2026-04-23 13:48 50.50563 3.99393 5703 ft 227 kts 124°
2026-04-23 13:48 50.49618 4.01329 5466 ft 218 kts 124°
2026-04-23 13:48 50.48715 4.03166 5235 ft 209 kts 124°
2026-04-23 13:49 50.47837 4.04945 4995 ft 201 kts 124°
2026-04-23 13:49 50.46998 4.06636 4768 ft 195 kts 125°
2026-04-23 13:49 50.46170 4.08308 4537 ft 191 kts 124°
2026-04-23 13:49 50.45358 4.09941 4305 ft 188 kts 124°
2026-04-23 13:50 50.44567 4.11528 4097 ft 184 kts 124°
2026-04-23 13:50 50.43791 4.13082 3900 ft 181 kts 124°
2026-04-23 13:50 50.43009 4.14644 3676 ft 182 kts 124°
2026-04-23 13:50 50.42222 4.16212 3452 ft 183 kts 124°
2026-04-23 13:51 50.41429 4.17790 3234 ft 183 kts 124°
2026-04-23 13:51 50.40661 4.19330 3080 ft 180 kts 122°
2026-04-23 13:51 50.40170 4.21082 3018 ft 173 kts 103°
2026-04-23 13:51 50.40016 4.22986 2912 ft 177 kts 88°
2026-04-23 13:52 50.40177 4.24875 2804 ft 176 kts 76°
2026-04-23 13:52 50.40560 4.26714 2687 ft 176 kts 68°
2026-04-23 13:52 50.41050 4.28450 2546 ft 176 kts 64°
2026-04-23 13:52 50.41566 4.30176 2397 ft 166 kts 64°
2026-04-23 13:53 50.42019 4.31693 2245 ft 143 kts 64°
2026-04-23 13:53 50.42422 4.33052 2086 ft 132 kts 64°
2026-04-23 13:53 50.42802 4.34344 1918 ft 131 kts 63°
2026-04-23 13:53 50.43185 4.35648 1776 ft 132 kts 63°
2026-04-23 13:54 50.43571 4.36970 1627 ft 133 kts 63°
2026-04-23 13:54 50.43955 4.38287 1477 ft 134 kts 63°
2026-04-23 13:54 50.44346 4.39628 1313 ft 135 kts 64°
2026-04-23 13:54 50.44737 4.40970 1116 ft 135 kts 64°
2026-04-23 13:55 50.45127 4.42314 934 ft 134 kts 65°
2026-04-23 13:55 50.45509 4.43635 749 ft 135 kts 65°
2026-04-23 13:55 50.45890 4.44950 623 ft 121 kts 66°
2026-04-23 13:55 50.46145 4.45831 623 ft 59 kts 66°
2026-04-23 13:56 50.46280 4.46297 623 ft 39 kts 65°
2026-04-23 13:56 50.46373 4.46615 623 ft 26 kts 66°
2026-04-23 13:56 50.46432 4.46818 623 ft 16 kts 63°
2026-04-23 13:56 50.46487 4.46893 623 ft 6 kts 13°
2026-04-23 13:57 50.46516 4.46888 623 ft 2 kts 336°
2026-04-23 13:57 50.46527 4.46880 623 ft 2 kts 335°
2026-04-23 13:57 50.46547 4.46866 623 ft 4 kts 335°
2026-04-23 13:57 50.46576 4.46845 623 ft 5 kts 335°
2026-04-23 13:58 50.46615 4.46818 623 ft 7 kts 335°
2026-04-23 13:58 50.46663 4.46784 623 ft 8 kts 335°
2026-04-23 13:58 50.46714 4.46781 623 ft 3 kts 34°
2026-04-23 13:58 50.46727 4.46814 623 ft 5 kts 63°
2026-04-23 13:59 50.46746 4.46878 623 ft 8 kts 65°
2026-04-23 13:59 50.46773 4.46971 623 ft 11 kts 65°
2026-04-23 13:59 50.46807 4.47089 623 ft 13 kts 65°
2026-04-23 13:59 50.46850 4.47234 623 ft 13 kts 65°
2026-04-23 14:00 50.46865 4.47287 623 ft 8 kts 65°
2026-04-23 14:00 50.46910 4.47370 623 ft 5 kts 351°
2026-04-23 14:00 50.46939 4.47350 623 ft 5 kts 335°
2026-04-23 14:00 50.46947 4.47345 623 ft 0 kts 335°